This is the latest recevied weather packets stored in our database for station/object K7CTM. If no packets are shown the sender has not sent any weather packets the latest 1 day(s).
| Time | Temp. | Humidity | Pressure | Rain* | Wind** | Luminosity | Snow |
|---|---|---|---|---|---|---|---|
| 1778027867 | 7.78° C | 35% | 1026.6 hPa | 0 mm | 4.02 m/s, 352° | 97 W/m² | - |
| 1778027563 | 7.78° C | 36% | 1026.6 hPa | 0 mm | 2.24 m/s, 332° | 116 W/m² | - |
| 1778027259 | 7.78° C | 35% | 1026.6 hPa | 0 mm | 2.24 m/s, 297° | 108 W/m² | - |
| 1778026955 | 7.78° C | 35% | 1026.5 hPa | 0 mm | 1.34 m/s, 284° | 138 W/m² | - |
| 1778026651 | 7.78° C | 37% | 1026.5 hPa | 0 mm | 1.79 m/s, 297° | 145 W/m² | - |
| 1778026349 | 8.33° C | 34% | 1026.5 hPa | 0 mm | 4.02 m/s, 326° | 133 W/m² | - |
| 1778026046 | 8.33° C | 33% | 1026.3 hPa | 0 mm | 1.79 m/s, 265° | 130 W/m² | - |
| 1778025744 | 8.33° C | 33% | 1026.2 hPa | 0 mm | 1.79 m/s, 274° | 182 W/m² | - |
| 1778025441 | 8.33° C | 33% | 1026.3 hPa | 0 mm | 1.79 m/s, 296° | 166 W/m² | - |
| 1778025139 | 8.89° C | 33% | 1026.2 hPa | 0 mm | 2.24 m/s, 292° | 190 W/m² | - |
| 1778024835 | 8.33° C | 33% | 1026.1 hPa | 0 mm | 2.68 m/s, 8° | 281 W/m² | - |
| 1778024533 | 8.33° C | 34% | 1026 hPa | 0 mm | 1.34 m/s, 346° | 131 W/m² | - |
| 1778024228 | 8.33° C | 35% | 1026.2 hPa | 0 mm | 0.89 m/s, 169° | 117 W/m² | - |
| 1778023926 | 8.33° C | 34% | 1026.1 hPa | 0 mm | 0.89 m/s, 297° | 188 W/m² | - |
| 1778023623 | 8.33° C | 34% | 1026 hPa | 0 mm | 1.79 m/s, 331° | 133 W/m² | - |
| 1778023321 | 8.33° C | 34% | 1025.7 hPa | 0 mm | 0.89 m/s, 251° | 121 W/m² | - |
| 1778023018 | 9.44° C | 32% | 1026 hPa | 0 mm | 1.34 m/s, 4° | 165 W/m² | - |
| 1778022717 | 10° C | 32% | 1026.1 hPa | 0 mm | 0.45 m/s, 259° | 553 W/m² | - |
| 1778022415 | 8.89° C | 33% | 1025.8 hPa | 0 mm | 1.34 m/s, 287° | 352 W/m² | - |
| 1778022111 | 8.33° C | 33% | 1026.1 hPa | 0 mm | 1.79 m/s, 280° | 149 W/m² | - |
| 1778021807 | 8.89° C | 32% | 1026.2 hPa | 0 mm | 2.68 m/s, 330° | 117 W/m² | - |
| 1778021503 | 10° C | 32% | 1026.1 hPa | 0 mm | 1.34 m/s, 10° | 182 W/m² | - |
| 1778021199 | 8.89° C | 34% | 1026 hPa | 0 mm | 1.34 m/s, 267° | 226 W/m² | - |
| 1778020897 | 9.44° C | 38% | 1026 hPa | 0 mm | 0.89 m/s, 31° | 172 W/m² | - |
| 1778020594 | 8.89° C | 45% | 1025.8 hPa | 0 mm | 2.68 m/s, 262° | 587 W/m² | - |
* Rain latest hour (hover to see other rain measurements)
** Current wind speed in m/s (hover to see current wind gust speed)